Location: USNO
(38.9242°N, 77.0663°W)
Time: 09:04:09
(UTC-04:00)

ISS - Pass Details

Date: 14 October 2017
Orbit: 401 x 408 km, 51.6° (Epoch: 19 October)

Event Time Altitude Azimuth Distance (km) Brightness Sun altitude
Rises 19:26:02 0° 309° (NW) 2,323 0.8 -11.5°
Reaches altitude 10° 19:28:07 10° 312° (NW) 1,462 -0.3 -11.9°
Maximum altitude 19:31:24 73° 37° (NE) 426 -3.9 -12.6°
Enters shadow 19:33:32 20° 121° (ESE) 1,010 -2.3 -13.0°
